weather.gov     
National Weather Service

Regional Weather Roundup
NWS Homepage
This page is being discontinued on March 12, 2014.
The same data is available at this site. Please update your bookmarks.
Thank you, and we apologize for the inconvenience.
Please send an email to SR-SRH.Webmaster@noaa.gov with any concerns.


Current Version
Previous Version:    01  02  03  04  05  06  07  08  09  10  11  12  13  14  15  16  17  18  19  20  21  22  23  24  25  26  27  28  29  30  
   31  32  33  34  35  36  37  38  39  40  41  42  43  44  45  46  47  48  49  50  51  52  53  54  
[Printable]
615
ASUS42 KMHX 260710
RWRMHX
WEATHER ROUNDUP FOR EASTERN NORTH CAROLINA
NATIONAL WEATHER SERVICE NEWPORT/MOREHEAD CITY NC
300 AM EDT SAT JUL 26 2014

NOTE: "FAIR" INDICATES FEW OR NO CLOUDS BELOW 12,000 FEET
WITH NO SIGNIFICANT WEATHER AND/OR OBSTRUCTIONS TO VISIBILITY

NCZ015>017-031-032-045>047-102-103-260800-
NORTH COAST

CITY           SKY/WX    TMP DP  RH WIND       PRES   REMARKS
EDENTON        MOCLDY    68  64  88 CALM      30.02F
ELIZABETH CITY MOCLDY    67  63  87 CALM      30.02S
KITTY HAWK     SUNNY     74  61  65 SE5       30.00F
MANTEO         NOT AVBL

$$

NCZ045>047-081-094-103-104-260800-
CENTRAL COAST

CITY           SKY/WX    TMP DP  RH WIND       PRES   REMARKS
FRISCO         PTCLDY    74  71  91 E5        30.00F
SWANQUARTER      N/A     70 N/A N/A NE3       29.97S

$$

NCZ095-097-098-100-101-260800-
SOUTHERN COAST

CITY           SKY/WX    TMP DP  RH WIND       PRES   REMARKS
BEAUFORT       CLEAR     77  73  87 E3        29.99F
CEDAR ISLAND     N/A     77 N/A N/A E10       30.03F
JACKSONVILLE   CLEAR     75  73  93 E5        29.99F
NEWPORT        NOT AVBL
PINEY ISLAND   MOSUNNY   79  74  84 E8        29.99F
WILMINGTON     PTCLDY    73  72  96 CALM      29.99F


$$

NCZ011>013-027>030-043-044-078>080-089-090>093-098-260800-
COASTAL PLAIN

CITY           SKY/WX    TMP DP  RH WIND       PRES   REMARKS
AHOSKIE        PTCLDY    66  64  93 CALM      30.02F
CLINTON        PTCLDY    71  71 100 CALM      30.01S FOG
ELIZABETHTOWN  CLEAR     73  73 100 CALM      29.99F FOG
GOLDSBORO      CLEAR     72  71  98 NE1       29.99F
GREENVILLE     MOCLDY    72  70  94 CALM      30.03S
HAVELOCK       CLEAR     73  70  90 CALM      30.01F
KENANSVILLE    PTCLDY    70  69  96 CALM      30.01F
KINSTON        CLEAR     73  71  91 CALM      30.01F
NEW BERN       CLEAR     76  71  85 E3        30.01F
RICHLANDS      CLOUDY    72  68  88 CALM      30.00F
ROANOKE RAPIDS NOT AVBL
ROCKY MOUNT    FOG       68  67  96 CALM      30.01F VSB 1/4
WASHINGTON     CLEAR     70  67  91 CALM      30.02F
WHITEVILLE     CLOUDY    75  73  96 CALM      29.99S

$$

AMZ130-135-150-152-154-156-158-170-250-252-270-ANZ085-086-088-633-658-670-260800-
MARINE OBSERVATIONS

STATION/POSITION TIME  TEMP    WIND        PRES    WAVE   SWELL
                       AIR SEA DIR/SP/G            HT/PER HT/PER
                 (UTC) (F)     (DEG/KT/KT) (MB)    (FT/S) (FT/S)
CHESAPEAKE LIGHT NOT AVBL
BUOY 44014       0700   76 78  160/  8/ 10 1016.2    2/ 7   2/ 7
DUCK             0700   76 77  140/ 12/ 13 1015.6
2E DUCK          0700                        N/A     2/ 7
OREGON INLET     0700   75 79  130/  4/  7 1016.3
BUOY 44095       0700      77                N/A     2/ 7
20E OREGON INLET NOT AVBL
HATTERAS CG      0700   77 81   90/  5/  9 1016.3
DIAMOND BUOY     0700          VRB 12/ 16  1015.2    3/ 6   2/ 6
CAPE LOOKOUT     0600   79      80/ 11/ 13 1015.8
BEAUFORT LAB     0700   77 81   80/  3/  5 1015.4
30 SE NEW RIVER  0700   79 81   70/  2/  2 1015.9    3/ 6   2/ 6
5 SE WRIGHTSVILL 0600   77 81  120/  6/  8   N/A
BUOY 41002       0626   81 82  250/ 12/ 14 1018.2    4/ 7   3/ 7
BUOY 41004       0700   80 83  190/ 10/ 12 1014.6    3/ 5   3/ 5

$$




U.S. Dept. of Commerce
NOAA National Weather Service
1325 East West Highway
Silver Spring, MD 20910
E-mail: w-nws.webmaster@noaa.gov
Page last modified: May 16, 2007
NATIONAL WEATHER SERVICE: for Safety, for Work, for Fun - FOR LIFE